Location: Casilda
(33.0440°S, 61.1680°W)
Time: 12:06:04
(UTC-03:00)

ISS - Pass Details

Date: 12 February 2024
Orbit: 414 x 422 km, 51.6° (Epoch: 04 March)

Event Time Altitude Azimuth Distance (km) Brightness Sun altitude
Rises 20:30:04 0° 297° (WNW) 2,356 0.7 -6.9°
Reaches altitude 10° 20:32:15 10° 288° (WNW) 1,497 -0.1 -7.4°
Maximum altitude 20:35:23 36° 219° (SW) 682 -2.0 -8.0°
Drops below altitude 10° 20:38:34 10° 150° (SSE) 1,510 -1.0 -8.6°
Enters shadow 20:44:25 -11° 135° (SE) 3,842 0.9 -9.7°
